| time (UTC) | temp F | wind direction | speed knots | gust knots | rain 1hr in | rain 24hr in | rain mn in | humidity % | barometer mb |
| 20260506160905 | 32 | 144 | 1.7 | 1.7 | 0.02 | 0.01 | 0.01 | 96 | 1018.9 |
| 20260506160401 | 32 | 53 | 0.0 | 1.7 | 0.00 | 0.01 | 0.01 | 96 | 1019.0 |
| 20260506155900 | 32 | 97 | 0.9 | 1.7 | 0.00 | 0.01 | 0.01 | 97 | 1018.8 |
| 20260506155357 | 32 | 90 | 1.7 | 1.7 | 0.02 | 0.01 | 0.01 | 97 | 1018.9 |
| 20260506153519 | 32 | 96 | 0.0 | 1.7 | 0.00 | 0.00 | 0.00 | 97 | 1018.9 |
| 20260506153017 | 31 | 101 | 1.7 | 1.7 | 0.00 | 0.00 | 0.00 | 97 | 1018.8 |
| 20260506152514 | 31 | 83 | 0.9 | 1.7 | 0.00 | 0.00 | 0.00 | 97 | 1018.7 |
| 20260506152012 | 31 | 85 | 1.7 | 1.7 | 0.00 | 0.00 | 0.00 | 97 | 1018.7 |
| 20260506151509 | 31 | 90 | 0.9 | 1.7 | 0.00 | 0.00 | 0.00 | 97 | 1018.4 |
| 20260506151006 | 31 | 117 | 0.0 | 2.6 | 0.00 | 0.00 | 0.00 | 97 | 1018.5 |
| 20260506150502 | 31 | 80 | 2.6 | 2.6 | 0.02 | 0.00 | 0.00 | 97 | 1018.4 |
| 20260506145959 | 31 | 106 | 1.7 | 4.3 | 0.02 | 0.00 | 0.00 | 97 | 1018.4 |
| 20260506145456 | 31 | 85 | 1.7 | 2.6 | 0.00 | 0.00 | 0.00 | 97 | 1018.3 |
| 20260506144954 | 31 | 109 | 0.9 | 1.7 | 0.00 | 0.00 | 0.00 | 97 | 1018.3 |
| 20260506144450 | 31 | 90 | 1.7 | 1.7 | 0.00 | 0.00 | 0.00 | 97 | 1018.1 |
| 20260506143948 | 31 | 90 | 0.9 | 1.7 | 0.00 | 0.00 | 0.00 | 97 | 1018.2 |
| 20260506143445 | 30 | 90 | 0.9 | 2.6 | 0.00 | 0.00 | 0.00 | 97 | 1018.1 |
| 20260506142944 | 31 | 105 | 0.9 | 1.7 | 0.00 | 0.00 | 0.00 | 97 | 1017.8 |
| 20260506142441 | 31 | 90 | 0.9 | 2.6 | 0.00 | 0.00 | 0.00 | 97 | 1018.0 |
| 20260506141939 | 31 | 83 | 0.9 | 1.7 | 0.00 | 0.00 | 0.00 | 97 | 1017.8 |
| 20260506141436 | 31 | 96 | 0.0 | 2.6 | 0.00 | 0.00 | 0.00 | 97 | 1018.1 |
| 20260506140935 | 31 | 90 | 1.7 | 1.7 | 0.00 | 0.00 | 0.00 | 97 | 1017.7 |
| 20260506140431 | 31 | 110 | 1.7 | 1.7 | 0.00 | 0.00 | 0.00 | 97 | 1018.0 |
| 20260506135928 | 31 | 90 | 0.0 | 1.7 | 0.00 | 0.00 | 0.00 | 97 | 1017.8 |
| 20260506135426 | 31 | 90 | 0.9 | 1.7 | 0.00 | 0.00 | 0.00 | 97 | 1017.8 |
| 20260506134922 | 31 | 78 | 0.9 | 1.7 | 0.00 | 0.00 | 0.00 | 97 | 1018.0 |
| 20260506134418 | 31 | 106 | 1.7 | 1.7 | 0.00 | 0.00 | 0.00 | 97 | 1017.6 |
| 20260506133915 | 31 | 78 | 0.9 | 1.7 | 0.00 | 0.00 | 0.00 | 97 | 1017.6 |
| 20260506133411 | 31 | 102 | 0.9 | 1.7 | 0.00 | 0.00 | 0.00 | 97 | 1017.5 |
| 20260506132908 | 31 | 105 | 0.9 | 1.7 | 0.00 | 0.00 | 0.00 | 97 | 1017.5 |
| 20260506132405 | 30 | 90 | 0.9 | 1.7 | 0.00 | 0.00 | 0.00 | 97 | 1017.7 |
| 20260506131904 | 31 | 96 | 1.7 | 1.7 | 0.00 | 0.00 | 0.00 | 97 | 1017.5 |
| 20260506131359 | 31 | 96 | 0.9 | 1.7 | 0.00 | 0.00 | 0.00 | 97 | 1017.6 |
| 20260506130856 | 31 | 111 | 0.0 | 1.7 | 0.00 | 0.00 | 0.00 | 97 | 1017.2 |
| 20260506130353 | 31 | 90 | 0.9 | 1.7 | 0.00 | 0.00 | 0.00 | 97 | 1017.2 |
| 20260506125851 | 31 | 98 | 0.9 | 1.7 | 0.00 | 0.00 | 0.00 | 97 | 1017.1 |
| 20260506125349 | 31 | 95 | 1.7 | 1.7 | 0.00 | 0.00 | 0.00 | 97 | 1017.2 |
| 20260506124847 | 31 | 78 | 0.9 | 1.7 | 0.00 | 0.00 | 0.00 | 97 | 1016.8 |
| 20260506124344 | 31 | 97 | 0.9 | 1.7 | 0.00 | 0.00 | 0.00 | 97 | 1016.8 |
| 20260506123841 | 31 | 112 | 1.7 | 1.7 | 0.00 | 0.00 | 0.00 | 97 | 1016.8 |
| 20260506123340 | 31 | 95 | 1.7 | 1.7 | 0.00 | 0.00 | 0.00 | 97 | 1016.7 |
| 20260506122837 | 31 | 84 | 1.7 | 1.7 | 0.00 | 0.00 | 0.00 | 97 | 1016.7 |
| 20260506122333 | 31 | 105 | 0.9 | 1.7 | 0.00 | 0.00 | 0.00 | 97 | 1016.8 |
| 20260506121832 | 30 | 80 | 1.7 | 1.7 | 0.00 | 0.00 | 0.00 | 97 | 1016.8 |
| 20260506121328 | 30 | 63 | 1.7 | 1.7 | 0.00 | 0.00 | 0.00 | 97 | 1016.4 |
| 20260506120825 | 30 | 90 | 1.7 | 2.6 | 0.00 | 0.00 | 0.00 | 97 | 1016.7 |
| 20260506120323 | 30 | 96 | 1.7 | 1.7 | 0.00 | 0.00 | 0.00 | 97 | 1016.8 |
| 20260506115820 | 30 | 57 | 2.6 | 2.6 | 0.00 | 0.00 | 0.00 | 97 | 1016.5 |
| 20260506115318 | 30 | 90 | 1.7 | 2.6 | 0.00 | 0.00 | 0.00 | 97 | 1016.3 |
| 20260506114816 | 30 | 75 | 1.7 | 1.7 | 0.00 | 0.00 | 0.00 | 97 | 1016.3 |
| 20260506114314 | 30 | 84 | 0.0 | 1.7 | 0.00 | 0.00 | 0.00 | 97 | 1016.2 |
| 20260506113812 | 30 | 95 | 1.7 | 1.7 | 0.00 | 0.00 | 0.00 | 97 | 1016.3 |
| 20260506113309 | 30 | 110 | 1.7 | 1.7 | 0.00 | 0.00 | 0.00 | 97 | 1016.3 |
| 20260506112806 | 30 | 90 | 0.0 | 1.7 | 0.00 | 0.00 | 0.00 | 97 | 1016.2 |
| 20260506112305 | 30 | 81 | 1.7 | 1.7 | 0.00 | 0.00 | 0.00 | 97 | 1016.3 |
| 20260506111800 | 30 | 74 | 1.7 | 1.7 | 0.00 | 0.00 | 0.00 | 97 | 1016.2 |
| 20260506111258 | 30 | 90 | 0.0 | 1.7 | 0.00 | 0.00 | 0.00 | 97 | 1015.8 |
| 20260506110755 | 30 | 102 | 0.9 | 2.6 | 0.00 | 0.00 | 0.00 | 97 | 1015.9 |
| 20260506110253 | 30 | 96 | 0.9 | 1.7 | 0.00 | 0.00 | 0.00 | 97 | 1016.2 |
| 20260506105749 | 30 | 117 | 1.7 | 2.6 | 0.00 | 0.00 | 0.00 | 97 | 1015.9 |
| 20260506105246 | 30 | 78 | 0.9 | 1.7 | 0.00 | 0.00 | 0.00 | 97 | 1016.2 |
| 20260506104744 | 30 | 90 | 0.9 | 1.7 | 0.00 | 0.00 | 0.00 | 97 | 1015.9 |
| 20260506104241 | 30 | 61 | 1.7 | 1.7 | 0.00 | 0.00 | 0.00 | 97 | 1015.8 |
| 20260506103738 | 30 | 90 | 0.9 | 1.7 | 0.00 | 0.00 | 0.00 | 97 | 1015.8 |
| 20260506103235 | 30 | 83 | 0.9 | 2.6 | 0.00 | 0.00 | 0.00 | 97 | 1015.9 |
| 20260506102733 | 30 | 79 | 1.7 | 1.7 | 0.00 | 0.00 | 0.00 | 97 | 1016.1 |
| 20260506102231 | 30 | 86 | 1.7 | 1.7 | 0.00 | 0.00 | 0.00 | 97 | 1016.1 |
| 20260506101728 | 31 | 84 | 1.7 | 1.7 | 0.00 | 0.00 | 0.00 | 97 | 1016.1 |
| 20260506101224 | 31 | 71 | 0.9 | 2.6 | 0.00 | 0.00 | 0.00 | 97 | 1016.2 |
| 20260506100722 | 30 | 90 | 0.9 | 1.7 | 0.00 | 0.00 | 0.00 | 97 | 1016.2 |
| 20260506100220 | 30 | 90 | 1.7 | 2.6 | 0.00 | 0.00 | 0.00 | 97 | 1016.1 |
| 20260506095718 | 31 | 78 | 0.9 | 1.7 | 0.00 | 0.00 | 0.00 | 97 | 1016.3 |
| 20260506095215 | 30 | 71 | 1.7 | 1.7 | 0.00 | 0.00 | 0.00 | 97 | 1016.3 |
| 20260506094712 | 30 | 48 | 1.7 | 3.5 | 0.00 | 0.00 | 0.00 | 97 | 1016.4 |
| 20260506094210 | 31 | 75 | 0.9 | 1.7 | 0.00 | 0.00 | 0.00 | 97 | 1016.1 |
| 20260506093709 | 31 | 80 | 1.7 | 1.7 | 0.00 | 0.00 | 0.00 | 97 | 1016.1 |
| 20260506093205 | 31 | 90 | 0.0 | 1.7 | 0.00 | 0.00 | 0.00 | 97 | 1015.9 |
| 20260506092703 | 31 | 96 | 0.9 | 1.7 | 0.00 | 0.00 | 0.00 | 97 | 1015.8 |
| 20260506092200 | 31 | 90 | 0.9 | 1.7 | 0.00 | 0.00 | 0.00 | 97 | 1015.8 |
| 20260506091658 | 31 | 77 | 0.9 | 1.7 | 0.00 | 0.00 | 0.00 | 97 | 1015.6 |
| 20260506091155 | 31 | 111 | 0.9 | 2.6 | 0.00 | 0.00 | 0.00 | 97 | 1015.9 |
| 20260506090653 | 31 | 97 | 0.0 | 1.7 | 0.00 | 0.00 | 0.00 | 97 | 1015.9 |
| 20260506090149 | 31 | 84 | 0.0 | 1.7 | 0.00 | 0.00 | 0.00 | 97 | 1015.8 |
| 20260506085646 | 31 | 95 | 1.7 | 1.7 | 0.00 | 0.00 | 0.00 | 97 | 1015.8 |
| 20260506085142 | 31 | 101 | 1.7 | 1.7 | 0.00 | 0.00 | 0.00 | 97 | 1015.7 |
| 20260506084639 | 31 | 105 | 0.9 | 1.7 | 0.00 | 0.00 | 0.00 | 97 | 1015.9 |
| 20260506084136 | 31 | 106 | 1.7 | 1.7 | 0.00 | 0.00 | 0.00 | 97 | 1015.9 |
| 20260506083633 | 31 | 90 | 1.7 | 1.7 | 0.00 | 0.00 | 0.00 | 97 | 1015.9 |
| 20260506083130 | 31 | 79 | 1.7 | 2.6 | 0.00 | 0.00 | 0.00 | 97 | 1015.7 |
| 20260506082627 | 31 | 114 | 2.6 | 2.6 | 0.00 | 0.00 | 0.00 | 97 | 1015.9 |
| 20260506082122 | 31 | 90 | 1.7 | 1.7 | 0.00 | 0.00 | 0.00 | 97 | 1015.9 |
| 20260506081621 | 31 | 114 | 0.9 | 1.7 | 0.00 | 0.00 | 0.00 | 97 | 1015.9 |
| 20260506081118 | 31 | 90 | 0.9 | 1.7 | 0.00 | 0.00 | 0.00 | 97 | 1016.1 |
| 20260506080616 | 32 | 84 | 1.7 | 2.6 | 0.00 | 0.00 | 0.00 | 97 | 1016.2 |
| 20260506080112 | 32 | 85 | 1.7 | 1.7 | 0.00 | 0.00 | 0.00 | 97 | 1016.2 |
| 20260506073056 | 32 | 96 | 1.7 | 1.7 | 0.00 | 0.00 | 0.00 | 97 | 1015.9 |
| 20260506072553 | 32 | 84 | 0.0 | 1.7 | 0.00 | 0.00 | 0.00 | 97 | 1015.7 |
| 20260506072051 | 32 | 90 | 1.7 | 1.7 | 0.00 | 0.00 | 0.00 | 97 | 1015.7 |
| 20260506071548 | 32 | 85 | 1.7 | 2.6 | 0.00 | 0.00 | 0.00 | 97 | 1015.9 |
| 20260506071045 | 32 | 103 | 1.7 | 2.6 | 0.00 | 0.00 | 0.00 | 97 | 1015.9 |
| 20260506070543 | 32 | 96 | 0.9 | 1.7 | 0.00 | 0.00 | 0.00 | 97 | 1016.1 |
| 20260506062017 | 31 | 75 | 0.0 | 1.7 | 0.00 | 0.00 | 0.00 | 97 | 1015.5 |
| 20260506061512 | 31 | 90 | 0.0 | 1.7 | 0.00 | 0.00 | 0.00 | 97 | 1015.6 |
| 20260506061010 | 31 | 90 | 1.7 | 1.7 | 0.00 | 0.00 | 0.00 | 97 | 1015.2 |
| 20260506060509 | 31 | 80 | 1.7 | 1.7 | 0.00 | 0.00 | 0.00 | 97 | 1015.4 |
| 20260506050937 | 32 | 85 | 1.7 | 1.7 | 0.00 | 0.16 | 0.16 | 97 | 1015.2 |
| 20260506050435 | 32 | 105 | 1.7 | 2.6 | 0.00 | 0.16 | 0.16 | 96 | 1015.2 |
| 20260506044925 | 32 | 90 | 1.7 | 1.7 | 0.00 | 0.16 | 0.16 | 96 | 1015.2 |
| 20260506044424 | 32 | 95 | 1.7 | 2.6 | 0.00 | 0.16 | 0.16 | 96 | 1015.1 |
| 20260506043920 | 32 | 90 | 1.7 | 2.6 | 0.00 | 0.16 | 0.16 | 96 | 1015.1 |
| 20260506043418 | 32 | 90 | 1.7 | 1.7 | 0.00 | 0.16 | 0.16 | 96 | 1015.1 |
| 20260506042915 | 32 | 83 | 2.6 | 2.6 | 0.00 | 0.16 | 0.16 | 96 | 1014.9 |
| 20260506042415 | 32 | 90 | 1.7 | 1.7 | 0.00 | 0.16 | 0.16 | 96 | 1015.1 |
| 20260506041912 | 32 | 90 | 1.7 | 1.7 | 0.00 | 0.16 | 0.16 | 96 | 1015.5 |
| 20260506041410 | 32 | 86 | 1.7 | 1.7 | 0.00 | 0.16 | 0.16 | 96 | 1015.2 |
| 20260506040906 | 32 | 96 | 0.9 | 1.7 | 0.00 | 0.16 | 0.16 | 96 | 1015.1 |
| 20260506040404 | 32 | 83 | 0.9 | 1.7 | 0.00 | 0.16 | 0.16 | 96 | 1015.2 |
| 20260506035900 | 32 | 68 | 1.7 | 1.7 | 0.00 | 0.16 | 0.16 | 96 | 1015.1 |
| 20260506035358 | 32 | 90 | 1.7 | 1.7 | 0.00 | 0.16 | 0.16 | 96 | 1015.0 |
| 20260506034854 | 32 | 90 | 1.7 | 1.7 | 0.00 | 0.16 | 0.16 | 96 | 1015.0 |
| 20260506034352 | 32 | 80 | 1.7 | 2.6 | 0.00 | 0.16 | 0.16 | 96 | 1015.0 |
| 20260506033848 | 32 | 85 | 1.7 | 1.7 | 0.00 | 0.16 | 0.16 | 96 | 1014.9 |
| 20260506033345 | 32 | 74 | 1.7 | 1.7 | 0.00 | 0.16 | 0.16 | 96 | 1014.9 |
| 20260506032843 | 32 | 85 | 1.7 | 1.7 | 0.00 | 0.16 | 0.16 | 96 | 1015.0 |
| 20260506032339 | 32 | 85 | 1.7 | 2.6 | 0.00 | 0.16 | 0.16 | 96 | 1015.0 |
| 20260506031836 | 32 | 107 | 0.9 | 3.5 | 0.00 | 0.16 | 0.16 | 96 | 1014.5 |
| 20260506031333 | 32 | 103 | 0.9 | 2.6 | 0.00 | 0.16 | 0.16 | 96 | 1014.6 |
| 20260506030831 | 32 | 86 | 1.7 | 1.7 | 0.00 | 0.16 | 0.16 | 96 | 1014.5 |
| 20260506030329 | 32 | 90 | 0.9 | 1.7 | 0.00 | 0.16 | 0.16 | 96 | 1014.4 |
| 20260506025825 | 32 | 74 | 1.7 | 3.5 | 0.00 | 0.16 | 0.16 | 96 | 1014.3 |
| 20260506025321 | 32 | 103 | 1.7 | 2.6 | 0.00 | 0.16 | 0.16 | 96 | 1014.4 |
| 20260506024819 | 32 | 81 | 1.7 | 2.6 | 0.00 | 0.16 | 0.16 | 96 | 1014.3 |
| 20260506024316 | 32 | 79 | 1.7 | 1.7 | 0.00 | 0.16 | 0.16 | 96 | 1014.2 |
| 20260506023812 | 32 | 90 | 1.7 | 1.7 | 0.00 | 0.16 | 0.16 | 96 | 1014.2 |
| 20260506023309 | 32 | 90 | 1.7 | 1.7 | 0.00 | 0.16 | 0.16 | 96 | 1013.9 |
| 20260506022805 | 32 | 90 | 1.7 | 1.7 | 0.00 | 0.16 | 0.16 | 96 | 1013.9 |
| 20260506022305 | 32 | 84 | 1.7 | 1.7 | 0.00 | 0.16 | 0.16 | 96 | 1013.7 |
| 20260506021801 | 32 | 86 | 1.7 | 1.7 | 0.00 | 0.16 | 0.16 | 96 | 1013.8 |
| 20260506021258 | 32 | 90 | 1.7 | 1.7 | 0.00 | 0.16 | 0.16 | 96 | 1013.6 |
| 20260506020754 | 32 | 78 | 1.7 | 1.7 | 0.00 | 0.16 | 0.16 | 96 | 1013.3 |
| 20260506020252 | 32 | 85 | 1.7 | 1.7 | 0.00 | 0.16 | 0.16 | 96 | 1013.2 |
| 20260506015750 | 32 | 90 | 0.9 | 1.7 | 0.00 | 0.16 | 0.16 | 96 | 1013.6 |
| 20260506015247 | 32 | 85 | 1.7 | 2.6 | 0.00 | 0.16 | 0.16 | 96 | 1013.5 |
| 20260506014744 | 32 | 85 | 1.7 | 1.7 | 0.00 | 0.16 | 0.16 | 96 | 1013.2 |
| 20260506014241 | 32 | 81 | 1.7 | 1.7 | 0.00 | 0.16 | 0.16 | 96 | 1013.2 |
| 20260506013738 | 32 | 102 | 0.9 | 1.7 | 0.00 | 0.16 | 0.16 | 96 | 1013.2 |
| 20260506013235 | 32 | 90 | 1.7 | 1.7 | 0.00 | 0.16 | 0.16 | 96 | 1013.2 |
| 20260506012731 | 32 | 84 | 1.7 | 1.7 | 0.00 | 0.16 | 0.16 | 96 | 1013.2 |
| 20260506012228 | 32 | 90 | 1.7 | 1.7 | 0.00 | 0.16 | 0.16 | 96 | 1013.2 |
| 20260506011726 | 32 | 90 | 1.7 | 1.7 | 0.00 | 0.16 | 0.16 | 96 | 1012.9 |
| 20260506011221 | 32 | 84 | 1.7 | 1.7 | 0.00 | 0.16 | 0.16 | 96 | 1013.0 |
| 20260506010720 | 32 | 85 | 1.7 | 1.7 | 0.00 | 0.16 | 0.16 | 96 | 1013.0 |
| 20260506010217 | 32 | 81 | 1.7 | 1.7 | 0.00 | 0.16 | 0.16 | 96 | 1013.0 |
| 20260506005714 | 32 | 84 | 1.7 | 1.7 | 0.00 | 0.16 | 0.16 | 96 | 1012.9 |
| 20260506005211 | 32 | 90 | 0.9 | 1.7 | 0.00 | 0.16 | 0.16 | 96 | 1013.1 |
| 20260506004707 | 32 | 95 | 1.7 | 1.7 | 0.00 | 0.16 | 0.16 | 96 | 1013.1 |
| 20260506004205 | 32 | 77 | 1.7 | 1.7 | 0.00 | 0.16 | 0.16 | 96 | 1012.9 |
| 20260506003700 | 32 | 73 | 0.0 | 1.7 | 0.00 | 0.16 | 0.16 | 96 | 1012.9 |
| 20260506003157 | 32 | 85 | 1.7 | 1.7 | 0.00 | 0.16 | 0.16 | 96 | 1012.9 |
| 20260506002653 | 32 | 90 | 1.7 | 1.7 | 0.00 | 0.16 | 0.16 | 96 | 1012.9 |
| 20260506002149 | 32 | 90 | 1.7 | 1.7 | 0.00 | 0.16 | 0.16 | 96 | 1012.9 |
| 20260506001645 | 32 | 81 | 1.7 | 1.7 | 0.00 | 0.16 | 0.16 | 96 | 1012.8 |
| 20260506001142 | 32 | 90 | 1.7 | 1.7 | 0.00 | 0.16 | 0.16 | 96 | 1012.6 |
| 20260506000640 | 32 | 90 | 1.7 | 2.6 | 0.00 | 0.16 | 0.16 | 96 | 1012.6 |
| 20260506000137 | 32 | 99 | 1.7 | 2.6 | 0.00 | 0.16 | 0.16 | 96 | 1012.6 |
| 20260505235635 | 32 | 90 | 1.7 | 1.7 | 0.00 | 0.16 | 0.16 | 96 | 1012.6 |
| 20260505235132 | 32 | 98 | 1.7 | 5.2 | 0.00 | 0.16 | 0.16 | 96 | 1012.6 |
| 20260505234629 | 32 | 96 | 1.7 | 3.5 | 0.00 | 0.16 | 0.16 | 96 | 1012.6 |
| 20260505234125 | 32 | 101 | 1.7 | 3.5 | 0.00 | 0.16 | 0.16 | 96 | 1012.5 |
| 20260505233623 | 32 | 149 | 2.6 | 7.0 | 0.00 | 0.16 | 0.16 | 96 | 1012.6 |
| 20260505233120 | 32 | 152 | 2.6 | 13.9 | 0.00 | 0.16 | 0.16 | 96 | 1012.6 |
| 20260505232618 | 32 | 172 | 4.3 | 13.9 | 0.00 | 0.16 | 0.16 | 96 | 1012.5 |
| 20260505232115 | 32 | 90 | 0.9 | 11.3 | 0.00 | 0.16 | 0.16 | 96 | 1012.2 |
| 20260505231612 | 32 | 80 | 1.7 | 20.9 | 0.00 | 0.16 | 0.16 | 96 | 1012.0 |
| 20260505231110 | 32 | 5 | 3.5 | 21.7 | 0.00 | 0.16 | 0.16 | 96 | 1012.2 |
| 20260505230608 | 32 | 0 | 0.0 | 12.2 | 0.00 | 0.16 | 0.16 | 95 | 1012.2 |
| 20260505230104 | 32 | 16 | 4.3 | 4.3 | 0.00 | 0.16 | 0.16 | 95 | 1012.2 |
| 20260505225601 | 32 | 334 | 0.0 | 2.6 | 0.00 | 0.16 | 0.16 | 95 | 1012.4 |
| 20260505225056 | 32 | 0 | 0.0 | 3.5 | 0.00 | 0.16 | 0.16 | 95 | 1012.4 |
| 20260505224554 | 32 | 344 | 0.0 | 5.2 | 0.00 | 0.16 | 0.16 | 95 | 1012.3 |
| 20260505224051 | 33 | 356 | 1.7 | 5.2 | 0.00 | 0.16 | 0.16 | 95 | 1012.3 |
| 20260505223548 | 33 | 334 | 3.5 | 7.8 | 0.00 | 0.16 | 0.16 | 95 | 1011.9 |
| 20260505223044 | 33 | 357 | 3.5 | 5.2 | 0.00 | 0.16 | 0.16 | 95 | 1011.8 |
| 20260505222541 | 33 | 4 | 3.5 | 7.0 | 0.00 | 0.16 | 0.16 | 95 | 1011.8 |
| 20260505222037 | 34 | 297 | 0.0 | 5.2 | 0.02 | 0.16 | 0.16 | 95 | 1011.5 |
| 20260505221534 | 34 | 286 | 0.0 | 7.8 | 0.02 | 0.16 | 0.16 | 95 | 1011.6 |
| 20260505221030 | 34 | 319 | 1.7 | 8.7 | 0.00 | 0.16 | 0.16 | 95 | 1011.6 |
| 20260505220528 | 35 | 0 | 2.6 | 7.8 | 0.02 | 0.16 | 0.16 | 95 | 1011.6 |
| 20260505220026 | 35 | 289 | 2.6 | 7.8 | 0.02 | 0.16 | 0.16 | 94 | 1011.6 |
| 20260505215524 | 36 | 13 | 4.3 | 10.4 | 0.00 | 0.15 | 0.15 | 94 | 1011.3 |
| 20260505215021 | 37 | 0 | 5.2 | 7.8 | 0.00 | 0.15 | 0.15 | 94 | 1011.2 |
| 20260505214519 | 37 | 344 | 5.2 | 7.8 | 0.00 | 0.15 | 0.15 | 94 | 1011.6 |
| 20260505214015 | 37 | 38 | 3.5 | 4.3 | 0.00 | 0.15 | 0.15 | 94 | 1011.3 |
| 20260505213514 | 37 | 0 | 0.9 | 5.2 | 0.00 | 0.15 | 0.15 | 95 | 1011.1 |
| 20260505213009 | 37 | 36 | 2.6 | 3.5 | 0.00 | 0.15 | 0.15 | 94 | 1011.5 |
| 20260505212506 | 38 | 343 | 3.5 | 3.5 | 0.00 | 0.15 | 0.15 | 94 | 1011.5 |
| 20260505212003 | 38 | 81 | 0.0 | 4.3 | 0.00 | 0.15 | 0.15 | 95 | 1011.3 |
| 20260505211501 | 38 | 102 | 1.7 | 2.6 | 0.00 | 0.15 | 0.15 | 95 | 1011.3 |
| 20260505210957 | 38 | 79 | 1.7 | 3.5 | 0.00 | 0.15 | 0.15 | 95 | 1011.5 |
| 20260505210453 | 38 | 259 | 0.0 | 5.2 | 0.00 | 0.15 | 0.15 | 95 | 1011.3 |
| 20260505205950 | 38 | 345 | 2.6 | 4.3 | 0.02 | 0.15 | 0.15 | 94 | 1011.5 |
| 20260505205449 | 37 | 14 | 0.0 | 3.5 | 0.02 | 0.15 | 0.15 | 94 | 1011.5 |
| 20260505204945 | 38 | 341 | 3.5 | 3.5 | 0.00 | 0.15 | 0.15 | 94 | 1011.8 |
| 20260505204444 | 38 | 103 | 0.0 | 3.5 | 0.00 | 0.15 | 0.15 | 94 | 1011.7 |
| 20260505203940 | 38 | 7 | 1.7 | 4.3 | 0.00 | 0.15 | 0.15 | 94 | 1012.0 |
| 20260505203437 | 38 | 334 | 4.3 | 4.3 | 0.00 | 0.15 | 0.15 | 94 | 1012.0 |
| 20260505202933 | 38 | 3 | 1.7 | 3.5 | 0.00 | 0.15 | 0.15 | 94 | 1012.0 |
| 20260505202429 | 38 | 342 | 1.7 | 4.3 | 0.00 | 0.15 | 0.15 | 95 | 1012.3 |
| 20260505201926 | 38 | 354 | 0.9 | 2.6 | 0.00 | 0.15 | 0.15 | 95 | 1012.2 |
| 20260505201423 | 38 | 328 | 0.0 | 3.5 | 0.00 | 0.15 | 0.15 | 94 | 1012.4 |
| 20260505200921 | 38 | 63 | 1.7 | 4.3 | 0.00 | 0.15 | 0.15 | 94 | 1012.5 |
| 20260505200418 | 37 | 131 | 0.0 | 3.5 | 0.02 | 0.15 | 0.15 | 95 | 1012.4 |
| 20260505195914 | 37 | 109 | 0.0 | 5.2 | 0.02 | 0.15 | 0.15 | 95 | 1012.2 |
| 20260505195411 | 38 | 93 | 2.6 | 3.5 | 0.00 | 0.15 | 0.15 | 95 | 1012.3 |
| 20260505194908 | 38 | 126 | 0.9 | 3.5 | 0.00 | 0.15 | 0.15 | 95 | 1012.4 |
| 20260505194406 | 37 | 21 | 0.0 | 3.5 | 0.00 | 0.15 | 0.15 | 95 | 1012.3 |
| 20260505193905 | 39 | 292 | 1.7 | 3.5 | 0.00 | 0.15 | 0.15 | 95 | 1012.2 |
| 20260505193404 | 38 | 116 | 2.6 | 3.5 | 0.00 | 0.15 | 0.15 | 95 | 1012.4 |
| 20260505192901 | 38 | 60 | 0.0 | 3.5 | 0.00 | 0.15 | 0.15 | 95 | 1012.3 |
| 20260505192359 | 38 | 94 | 1.7 | 5.2 | 0.02 | 0.15 | 0.15 | 95 | 1012.4 |
| 20260505191856 | 38 | 81 | 3.5 | 6.1 | 0.05 | 0.15 | 0.15 | 94 | 1012.3 |
| 20260505191355 | 37 | 140 | 0.9 | 4.3 | 0.02 | 0.14 | 0.14 | 95 | 1012.3 |
| 20260505190852 | 37 | 28 | 1.7 | 3.5 | 0.00 | 0.14 | 0.14 | 95 | 1012.5 |
| 20260505190347 | 38 | 114 | 0.9 | 2.6 | 0.00 | 0.14 | 0.14 | 95 | 1012.5 |
| 20260505185843 | 37 | 12 | 0.9 | 3.5 | 0.00 | 0.14 | 0.14 | 94 | 1012.5 |
| 20260505185340 | 37 | 23 | 0.9 | 3.5 | 0.00 | 0.14 | 0.14 | 94 | 1012.4 |
| 20260505184836 | 37 | 8 | 2.6 | 3.5 | 0.00 | 0.14 | 0.14 | 94 | 1012.6 |
| 20260505184333 | 38 | 292 | 0.0 | 2.6 | 0.00 | 0.14 | 0.14 | 95 | 1012.8 |
| 20260505183830 | 37 | 23 | 0.9 | 3.5 | 0.00 | 0.14 | 0.14 | 95 | 1013.0 |
| 20260505183326 | 38 | 8 | 1.7 | 3.5 | 0.00 | 0.14 | 0.14 | 94 | 1013.0 |
| 20260505182823 | 38 | 21 | 2.6 | 3.5 | 0.00 | 0.14 | 0.14 | 95 | 1013.0 |
| 20260505182320 | 37 | 99 | 2.6 | 3.5 | 0.00 | 0.14 | 0.14 | 95 | 1013.2 |
| 20260505181817 | 37 | 64 | 2.6 | 3.5 | 0.02 | 0.14 | 0.14 | 95 | 1013.1 |
| 20260505181314 | 37 | 45 | 1.7 | 3.5 | 0.02 | 0.14 | 0.14 | 95 | 1013.5 |
| 20260505180811 | 37 | 341 | 1.7 | 3.5 | 0.00 | 0.13 | 0.13 | 95 | 1013.3 |
| 20260505180307 | 37 | 69 | 0.9 | 3.5 | 0.00 | 0.13 | 0.13 | 95 | 1013.0 |
| 20260505175804 | 37 | 19 | 1.7 | 4.3 | 0.00 | 0.13 | 0.13 | 95 | 1013.2 |
| 20260505175300 | 37 | 354 | 3.5 | 3.5 | 0.00 | 0.13 | 0.13 | 95 | 1013.5 |
| 20260505174756 | 37 | 90 | 0.9 | 4.3 | 0.00 | 0.13 | 0.13 | 95 | 1013.6 |
| 20260505174254 | 37 | 96 | 1.7 | 3.5 | 0.00 | 0.13 | 0.13 | 95 | 1013.3 |
| 20260505173750 | 37 | 32 | 0.0 | 6.1 | 0.00 | 0.13 | 0.13 | 95 | 1013.2 |
| 20260505173247 | 37 | 6 | 2.6 | 3.5 | 0.00 | 0.13 | 0.13 | 95 | 1013.3 |
| 20260505172743 | 37 | 117 | 0.0 | 2.6 | 0.00 | 0.13 | 0.13 | 95 | 1013.6 |
| 20260505172241 | 37 | 11 | 0.0 | 2.6 | 0.00 | 0.13 | 0.13 | 95 | 1013.8 |
| 20260505171741 | 37 | 117 | 0.0 | 2.6 | 0.00 | 0.13 | 0.13 | 95 | 1013.6 |
| 20260505171238 | 37 | 105 | 0.0 | 1.7 | 0.00 | 0.13 | 0.13 | 95 | 1013.3 |
| 20260505170734 | 37 | 14 | 1.7 | 1.7 | 0.00 | 0.13 | 0.13 | 95 | 1013.7 |
| 20260505170232 | 37 | 90 | 0.0 | 1.7 | 0.00 | 0.13 | 0.13 | 95 | 1013.8 |
| 20260505165727 | 36 | 0 | 0.0 | 3.5 | 0.00 | 0.13 | 0.13 | 95 | 1013.8 |
| 20260505165223 | 36 | 90 | 0.0 | 2.6 | 0.00 | 0.13 | 0.13 | 95 | 1013.5 |
| 20260505164718 | 36 | 108 | 0.0 | 1.7 | 0.00 | 0.13 | 0.13 | 95 | 1013.8 |
| 20260505164216 | 36 | 81 | 2.6 | 3.5 | 0.00 | 0.13 | 0.13 | 95 | 1013.6 |
| 20260505163714 | 37 | 90 | 0.0 | 1.7 | 0.00 | 0.13 | 0.13 | 95 | 1013.6 |
| 20260505163212 | 36 | 60 | 0.9 | 1.7 | 0.02 | 0.13 | 0.13 | 96 | 1013.8 |
| 20260505162709 | 36 | 112 | 1.7 | 2.6 | 0.02 | 0.13 | 0.13 | 95 | 1014.1 |
| 20260505162206 | 36 | 31 | 2.6 | 4.3 | 0.00 | 0.13 | 0.13 | 95 | 1013.9 |
| 20260505161703 | 36 | 114 | 0.9 | 3.5 | 0.00 | 0.13 | 0.13 | 95 | 1014.1 |